| time (UTC) | temp F | wind direction | speed knots | gust knots | rain 1hr in | rain 24hr in | rain mn in | humidity % | barometer mb |
| 20260507085249 | 59 | 0 | 3.5 | 8.7 | 0.00 | 0.00 | 0.00 | 71 | 1016.9 |
| 20260507084749 | 59 | 0 | 2.6 | 8.7 | 0.00 | 0.00 | 0.00 | 70 | 1016.8 |
| 20260507084248 | 58 | 0 | 3.5 | 6.1 | 0.00 | 0.00 | 0.00 | 71 | 1016.8 |
| 20260507083751 | 58 | 0 | 4.3 | 6.1 | 0.00 | 0.00 | 0.00 | 71 | 1016.8 |
| 20260507083248 | 58 | 0 | 4.3 | 6.1 | 0.00 | 0.00 | 0.00 | 69 | 1016.8 |
| 20260507082746 | 58 | 0 | 3.5 | 8.7 | 0.00 | 0.00 | 0.00 | 70 | 1016.8 |
| 20260507082247 | 58 | 0 | 3.5 | 8.7 | 0.00 | 0.00 | 0.00 | 70 | 1016.8 |
| 20260507081747 | 57 | 0 | 4.3 | 7.8 | 0.00 | 0.00 | 0.00 | 71 | 1016.7 |
| 20260507081247 | 57 | 0 | 2.6 | 7.8 | 0.00 | 0.00 | 0.00 | 71 | 1016.7 |
| 20260507080748 | 57 | 0 | 5.2 | 7.8 | 0.00 | 0.00 | 0.00 | 70 | 1016.7 |
| 20260507080248 | 57 | 0 | 3.5 | 7.8 | 0.00 | 0.00 | 0.00 | 71 | 1016.6 |
| 20260507080244 | 57 | 0 | 4.3 | 7.8 | 0.00 | 0.00 | 0.00 | 71 | 1016.6 |
| 20260507075248 | 56 | 0 | 2.6 | 6.1 | 0.00 | 0.00 | 0.00 | 73 | 1016.5 |
| 20260507074746 | 56 | 0 | 3.5 | 7.8 | 0.00 | 0.00 | 0.00 | 73 | 1016.5 |
| 20260507074248 | 56 | 0 | 3.5 | 7.8 | 0.00 | 0.00 | 0.00 | 73 | 1016.5 |
| 20260507073746 | 55 | 0 | 5.2 | 9.6 | 0.00 | 0.00 | 0.00 | 74 | 1016.5 |
| 20260507073519 | 55 | 0 | 3.5 | 9.6 | 0.00 | 0.00 | 0.00 | 74 | 1016.5 |
| 20260507072747 | 55 | 0 | 3.5 | 7.8 | 0.00 | 0.00 | 0.00 | 75 | 1016.5 |
| 20260507072246 | 55 | 0 | 3.5 | 7.8 | 0.00 | 0.00 | 0.00 | 74 | 1016.5 |
| 20260507071747 | 55 | 0 | 3.5 | 7.8 | 0.00 | 0.00 | 0.00 | 75 | 1016.5 |
| 20260507071245 | 55 | 0 | 3.5 | 7.8 | 0.00 | 0.00 | 0.00 | 74 | 1016.4 |
| 20260507070746 | 55 | 0 | 3.5 | 7.8 | 0.00 | 0.00 | 0.00 | 75 | 1016.3 |
| 20260507070246 | 55 | 0 | 4.3 | 7.8 | 0.00 | 0.00 | 0.00 | 76 | 1016.4 |
| 20260507070013 | 55 | 0 | 2.6 | 6.1 | 0.00 | 0.00 | 0.00 | 77 | 1016.4 |
| 20260507065247 | 55 | 0 | 3.5 | 6.1 | 0.00 | 0.00 | 0.00 | 77 | 1016.4 |
| 20260507064746 | 54 | 0 | 2.6 | 6.1 | 0.00 | 0.00 | 0.00 | 78 | 1016.4 |
| 20260507064247 | 54 | 0 | 2.6 | 6.1 | 0.00 | 0.00 | 0.00 | 79 | 1016.4 |
| 20260507063745 | 53 | 0 | 3.5 | 6.1 | 0.00 | 0.00 | 0.00 | 79 | 1016.5 |
| 20260507063245 | 53 | 0 | 2.6 | 6.1 | 0.00 | 0.00 | 0.00 | 79 | 1016.5 |
| 20260507062744 | 53 | 0 | 3.5 | 6.1 | 0.00 | 0.00 | 0.00 | 79 | 1016.4 |
| 20260507062244 | 52 | 0 | 2.6 | 4.3 | 0.00 | 0.00 | 0.00 | 79 | 1016.3 |
| 20260507062008 | 52 | 0 | 1.7 | 5.2 | 0.00 | 0.00 | 0.00 | 80 | 1016.1 |
| 20260507061246 | 52 | 0 | 3.5 | 5.2 | 0.00 | 0.00 | 0.00 | 80 | 1016.1 |
| 20260507060745 | 52 | 0 | 3.5 | 4.3 | 0.00 | 0.00 | 0.00 | 81 | 1016.2 |
| 20260507060244 | 51 | 0 | 1.7 | 3.5 | 0.00 | 0.00 | 0.00 | 82 | 1016.1 |
| 20260507055744 | 51 | 0 | 3.5 | 3.5 | 0.00 | 0.00 | 0.00 | 84 | 1016.1 |
| 20260507055245 | 51 | 0 | 1.7 | 3.5 | 0.00 | 0.00 | 0.00 | 86 | 1016.0 |
| 20260507054731 | 50 | 0 | 0.9 | 3.5 | 0.00 | 0.00 | 0.00 | 87 | 1016.0 |
| 20260507054231 | 49 | 0 | 0.0 | 2.6 | 0.00 | 0.00 | 0.00 | 88 | 1015.9 |
| 20260507053732 | 49 | 0 | 2.6 | 3.5 | 0.00 | 0.00 | 0.00 | 89 | 1015.9 |
| 20260507053458 | 48 | 0 | 1.7 | 3.5 | 0.00 | 0.00 | 0.00 | 90 | 1016.0 |
| 20260507052704 | 47 | 0 | 0.9 | 1.7 | 0.00 | 0.00 | 0.00 | 90 | 1015.8 |
| 20260507052204 | 47 | 0 | 0.0 | 0.0 | 0.00 | 0.00 | 0.00 | 90 | 1015.8 |
| 20260507051707 | 46 | 0 | 0.0 | 0.0 | 0.00 | 0.00 | 0.00 | 90 | 1015.7 |
| 20260507051204 | 46 | 0 | 0.0 | 1.7 | 0.00 | 0.00 | 0.00 | 90 | 1015.8 |
| 20260507050702 | 45 | 0 | 0.0 | 2.6 | 0.00 | 0.00 | 0.00 | 91 | 1015.6 |
| 20260507050202 | 45 | 0 | 1.7 | 2.6 | 0.00 | 0.00 | 0.00 | 91 | 1015.7 |
| 20260507045702 | 45 | 0 | 1.7 | 1.7 | 0.00 | 0.00 | 0.00 | 91 | 1015.7 |
| 20260507045436 | 44 | 0 | 0.9 | 1.7 | 0.00 | 0.00 | 0.00 | 91 | 1015.6 |
| 20260507044703 | 44 | 0 | 0.0 | 1.7 | 0.00 | 0.00 | 0.00 | 91 | 1015.5 |
| 20260507044202 | 43 | 0 | 0.0 | 0.0 | 0.00 | 0.00 | 0.00 | 91 | 1015.4 |
| 20260507043704 | 43 | 0 | 0.0 | 1.7 | 0.00 | 0.00 | 0.00 | 91 | 1015.4 |
| 20260507043204 | 42 | 0 | 0.0 | 2.6 | 0.00 | 0.00 | 0.00 | 91 | 1015.4 |
| 20260507042704 | 42 | 0 | 1.7 | 2.6 | 0.00 | 0.00 | 0.00 | 90 | 1015.4 |
| 20260507042204 | 42 | 0 | 1.7 | 4.3 | 0.00 | 0.00 | 0.00 | 90 | 1015.4 |
| 20260507041704 | 42 | 0 | 2.6 | 4.3 | 0.00 | 0.00 | 0.00 | 90 | 1015.3 |
| 20260507041202 | 42 | 0 | 2.6 | 3.5 | 0.00 | 0.00 | 0.00 | 90 | 1015.3 |
| 20260507040705 | 42 | 0 | 1.7 | 4.3 | 0.00 | 0.00 | 0.00 | 90 | 1015.3 |
| 20260507040427 | 42 | 0 | 2.6 | 4.3 | 0.00 | 0.00 | 0.00 | 90 | 1015.2 |
| 20260507035702 | 42 | 0 | 1.7 | 3.5 | 0.00 | 0.00 | 0.00 | 90 | 1015.3 |
| 20260507035202 | 41 | 0 | 2.6 | 3.5 | 0.00 | 0.00 | 0.00 | 90 | 1015.3 |
| 20260507034703 | 41 | 0 | 1.7 | 3.5 | 0.00 | 0.00 | 0.00 | 90 | 1015.2 |
| 20260507034202 | 41 | 0 | 1.7 | 3.5 | 0.00 | 0.00 | 0.00 | 89 | 1015.2 |
| 20260507033926 | 41 | 0 | 0.0 | 0.0 | 0.00 | 0.00 | 0.00 | 89 | 1015.3 |
| 20260507033203 | 41 | 0 | 0.0 | 0.0 | 0.00 | 0.00 | 0.00 | 88 | 1015.2 |
| 20260507032701 | 41 | 0 | 0.0 | 0.0 | 0.00 | 0.00 | 0.00 | 88 | 1015.1 |
| 20260507032203 | 42 | 0 | 0.0 | 0.0 | 0.00 | 0.00 | 0.00 | 88 | 1015.1 |
| 20260507031702 | 42 | 0 | 0.0 | 0.0 | 0.00 | 0.00 | 0.00 | 88 | 1015.0 |
| 20260507031202 | 42 | 0 | 0.0 | 0.0 | 0.00 | 0.00 | 0.00 | 89 | 1015.0 |
| 20260507030703 | 42 | 0 | 0.0 | 1.7 | 0.00 | 0.00 | 0.00 | 89 | 1014.9 |
| 20260507030205 | 42 | 0 | 0.0 | 2.6 | 0.00 | 0.00 | 0.00 | 89 | 1015.0 |
| 20260507025702 | 42 | 0 | 1.7 | 2.6 | 0.00 | 0.00 | 0.00 | 89 | 1014.9 |
| 20260507025202 | 42 | 0 | 0.9 | 2.6 | 0.00 | 0.00 | 0.00 | 88 | 1015.0 |
| 20260507024925 | 42 | 0 | 0.0 | 1.7 | 0.00 | 0.00 | 0.00 | 88 | 1015.0 |
| 20260507024203 | 43 | 0 | 0.0 | 2.6 | 0.00 | 0.00 | 0.00 | 88 | 1014.9 |
| 20260507023701 | 43 | 0 | 1.7 | 2.6 | 0.00 | 0.00 | 0.00 | 88 | 1014.9 |
| 20260507023203 | 43 | 0 | 1.7 | 2.6 | 0.00 | 0.00 | 0.00 | 88 | 1014.9 |
| 20260507022705 | 43 | 0 | 0.9 | 1.7 | 0.00 | 0.00 | 0.00 | 88 | 1014.9 |
| 20260507022202 | 43 | 0 | 0.9 | 1.7 | 0.00 | 0.00 | 0.00 | 88 | 1014.9 |
| 20260507021705 | 43 | 0 | 0.9 | 2.6 | 0.00 | 0.00 | 0.00 | 87 | 1014.8 |
| 20260507021201 | 44 | 0 | 1.7 | 2.6 | 0.00 | 0.00 | 0.00 | 87 | 1014.8 |
| 20260507020702 | 44 | 0 | 0.9 | 1.7 | 0.00 | 0.00 | 0.00 | 87 | 1014.8 |
| 20260507020204 | 44 | 0 | 0.9 | 1.7 | 0.00 | 0.00 | 0.00 | 87 | 1014.8 |
| 20260507015702 | 44 | 0 | 0.0 | 2.6 | 0.00 | 0.00 | 0.00 | 87 | 1014.7 |
| 20260507015202 | 44 | 0 | 0.9 | 2.6 | 0.00 | 0.00 | 0.00 | 87 | 1014.7 |
| 20260507014701 | 44 | 0 | 1.7 | 2.6 | 0.00 | 0.00 | 0.00 | 87 | 1014.7 |
| 20260507014427 | 44 | 0 | 1.7 | 4.3 | 0.00 | 0.00 | 0.00 | 87 | 1014.7 |
| 20260507013927 | 44 | 0 | 1.7 | 4.3 | 0.00 | 0.00 | 0.00 | 86 | 1014.6 |
| 20260507013203 | 44 | 0 | 2.6 | 3.5 | 0.00 | 0.00 | 0.00 | 86 | 1014.6 |
| 20260507013142 | 44 | 0 | 1.7 | 3.5 | 0.00 | 0.00 | 0.00 | 86 | 1014.6 |
| 20260507011702 | 45 | 0 | 1.7 | 3.5 | 0.00 | 0.00 | 0.00 | 85 | 1014.6 |
| 20260507011429 | 45 | 0 | 1.7 | 3.5 | 0.00 | 0.00 | 0.00 | 85 | 1014.6 |
| 20260507010702 | 45 | 0 | 0.9 | 2.6 | 0.00 | 0.00 | 0.00 | 85 | 1014.5 |
| 20260507010202 | 45 | 0 | 1.7 | 4.3 | 0.00 | 0.00 | 0.00 | 85 | 1014.4 |
| 20260507005703 | 45 | 0 | 1.7 | 4.3 | 0.00 | 0.00 | 0.00 | 85 | 1014.5 |
| 20260507005203 | 45 | 0 | 1.7 | 4.3 | 0.00 | 0.00 | 0.00 | 85 | 1014.6 |
| 20260507004702 | 45 | 0 | 1.7 | 4.3 | 0.00 | 0.00 | 0.00 | 85 | 1014.6 |
| 20260507004202 | 45 | 0 | 2.6 | 4.3 | 0.00 | 0.00 | 0.00 | 85 | 1014.5 |
| 20260507003703 | 46 | 0 | 2.6 | 6.1 | 0.00 | 0.00 | 0.00 | 85 | 1014.5 |
| 20260507003202 | 46 | 0 | 2.6 | 6.1 | 0.00 | 0.00 | 0.00 | 84 | 1014.6 |
| 20260507002927 | 46 | 0 | 1.7 | 4.3 | 0.00 | 0.00 | 0.00 | 84 | 1014.6 |
| 20260507002202 | 46 | 0 | 2.6 | 5.2 | 0.00 | 0.00 | 0.00 | 84 | 1014.6 |
| 20260507001703 | 46 | 0 | 2.6 | 5.2 | 0.00 | 0.00 | 0.00 | 84 | 1014.5 |
| 20260507001203 | 46 | 0 | 2.6 | 5.2 | 0.00 | 0.00 | 0.00 | 84 | 1014.4 |
| 20260507000703 | 46 | 0 | 2.6 | 5.2 | 0.00 | 0.00 | 0.00 | 84 | 1014.4 |
| 20260507000204 | 46 | 0 | 2.6 | 5.2 | 0.00 | 0.00 | 0.00 | 84 | 1014.4 |
| 20260506235701 | 46 | 0 | 3.5 | 5.2 | 0.00 | 0.00 | 0.00 | 85 | 1014.3 |
| 20260506235203 | 46 | 0 | 2.6 | 6.1 | 0.00 | 0.00 | 0.00 | 85 | 1014.5 |
| 20260506234702 | 46 | 0 | 3.5 | 6.1 | 0.00 | 0.00 | 0.00 | 85 | 1014.6 |
| 20260506234203 | 46 | 0 | 2.6 | 6.1 | 0.00 | 0.00 | 0.00 | 85 | 1014.5 |
| 20260506233926 | 46 | 0 | 2.6 | 5.2 | 0.00 | 0.00 | 0.00 | 85 | 1014.5 |
| 20260506233202 | 47 | 0 | 3.5 | 5.2 | 0.00 | 0.00 | 0.00 | 85 | 1014.5 |
| 20260506232702 | 47 | 0 | 2.6 | 5.2 | 0.00 | 0.00 | 0.00 | 85 | 1014.5 |
| 20260506232429 | 47 | 0 | 2.6 | 6.1 | 0.00 | 0.00 | 0.00 | 85 | 1014.4 |
| 20260506231703 | 47 | 0 | 2.6 | 6.1 | 0.00 | 0.00 | 0.00 | 85 | 1014.4 |
| 20260506231202 | 47 | 0 | 2.6 | 5.2 | 0.00 | 0.00 | 0.00 | 85 | 1014.4 |
| 20260506230702 | 47 | 0 | 2.6 | 7.8 | 0.00 | 0.00 | 0.00 | 85 | 1014.4 |
| 20260506230202 | 47 | 0 | 3.5 | 7.8 | 0.00 | 0.00 | 0.00 | 85 | 1014.5 |
| 20260506225703 | 47 | 0 | 3.5 | 6.1 | 0.00 | 0.00 | 0.00 | 85 | 1014.4 |
| 20260506225203 | 47 | 0 | 4.3 | 7.8 | 0.00 | 0.00 | 0.00 | 85 | 1014.4 |
| 20260506224702 | 47 | 0 | 3.5 | 7.8 | 0.00 | 0.00 | 0.00 | 85 | 1014.4 |
| 20260506224431 | 47 | 0 | 3.5 | 7.8 | 0.00 | 0.00 | 0.00 | 85 | 1014.4 |
| 20260506223702 | 47 | 0 | 3.5 | 7.8 | 0.00 | 0.00 | 0.00 | 85 | 1014.3 |
| 20260506223202 | 47 | 0 | 2.6 | 4.3 | 0.00 | 0.00 | 0.00 | 85 | 1014.3 |
| 20260506222703 | 48 | 0 | 3.5 | 6.1 | 0.00 | 0.00 | 0.00 | 85 | 1014.2 |
| 20260506222204 | 48 | 0 | 2.6 | 6.1 | 0.00 | 0.00 | 0.00 | 85 | 1014.1 |
| 20260506221705 | 48 | 0 | 1.7 | 7.8 | 0.00 | 0.00 | 0.00 | 85 | 1014.2 |
| 20260506221203 | 48 | 0 | 3.5 | 7.8 | 0.00 | 0.00 | 0.00 | 85 | 1014.1 |
| 20260506220703 | 48 | 0 | 3.5 | 7.8 | 0.00 | 0.00 | 0.00 | 85 | 1014.1 |
| 20260506220202 | 49 | 0 | 2.6 | 6.1 | 0.00 | 0.00 | 0.00 | 84 | 1014.1 |
| 20260506215703 | 49 | 0 | 2.6 | 6.1 | 0.00 | 0.00 | 0.00 | 84 | 1014.1 |
| 20260506215202 | 49 | 0 | 3.5 | 6.1 | 0.00 | 0.00 | 0.00 | 84 | 1014.0 |
| 20260506214703 | 49 | 0 | 3.5 | 6.1 | 0.00 | 0.00 | 0.00 | 84 | 1014.0 |
| 20260506214157 | 49 | 0 | 2.6 | 6.1 | 0.00 | 0.00 | 0.00 | 84 | 1014.0 |
| 20260506213656 | 49 | 0 | 3.5 | 5.2 | 0.00 | 0.00 | 0.00 | 84 | 1013.9 |
| 20260506213420 | 49 | 0 | 3.5 | 6.1 | 0.00 | 0.00 | 0.00 | 84 | 1013.9 |
| 20260506212656 | 50 | 0 | 3.5 | 6.1 | 0.00 | 0.00 | 0.00 | 83 | 1013.8 |
| 20260506212156 | 50 | 0 | 3.5 | 7.8 | 0.00 | 0.00 | 0.00 | 83 | 1013.7 |
| 20260506211914 | 50 | 0 | 2.6 | 7.8 | 0.00 | 0.00 | 0.00 | 83 | 1013.8 |
| 20260506211150 | 50 | 0 | 4.3 | 9.6 | 0.00 | 0.00 | 0.00 | 83 | 1013.8 |
| 20260506210646 | 50 | 0 | 5.2 | 9.6 | 0.00 | 0.00 | 0.00 | 82 | 1013.7 |
| 20260506210147 | 50 | 0 | 3.5 | 9.6 | 0.00 | 0.00 | 0.00 | 82 | 1013.6 |
| 20260506205645 | 50 | 0 | 3.5 | 9.6 | 0.00 | 0.00 | 0.00 | 82 | 1013.6 |
| 20260506205141 | 50 | 0 | 3.5 | 8.7 | 0.00 | 0.00 | 0.00 | 82 | 1013.5 |
| 20260506204901 | 51 | 0 | 3.5 | 8.7 | 0.00 | 0.00 | 0.00 | 81 | 1013.6 |
| 20260506204139 | 51 | 0 | 5.2 | 8.7 | 0.00 | 0.00 | 0.00 | 81 | 1013.5 |
| 20260506203639 | 51 | 0 | 2.6 | 9.6 | 0.00 | 0.00 | 0.00 | 81 | 1013.5 |
| 20260506203138 | 51 | 0 | 6.1 | 10.4 | 0.00 | 0.00 | 0.00 | 80 | 1013.5 |
| 20260506202637 | 51 | 0 | 4.3 | 10.4 | 0.00 | 0.00 | 0.00 | 80 | 1013.6 |
| 20260506202137 | 51 | 0 | 5.2 | 10.4 | 0.00 | 0.00 | 0.00 | 80 | 1013.4 |
| 20260506201638 | 51 | 0 | 5.2 | 10.4 | 0.00 | 0.00 | 0.00 | 79 | 1013.4 |
| 20260506201135 | 51 | 0 | 4.3 | 9.6 | 0.00 | 0.00 | 0.00 | 79 | 1013.5 |
| 20260506200636 | 51 | 0 | 4.3 | 8.7 | 0.00 | 0.00 | 0.00 | 79 | 1013.3 |
| 20260506200134 | 51 | 0 | 4.3 | 8.7 | 0.00 | 0.00 | 0.00 | 78 | 1013.3 |
| 20260506195633 | 52 | 0 | 3.5 | 8.7 | 0.00 | 0.00 | 0.00 | 78 | 1013.3 |
| 20260506195132 | 52 | 0 | 5.2 | 9.6 | 0.00 | 0.00 | 0.00 | 78 | 1013.1 |
| 20260506194633 | 52 | 0 | 4.3 | 10.4 | 0.00 | 0.00 | 0.00 | 78 | 1013.0 |
| 20260506194359 | 52 | 0 | 4.3 | 10.4 | 0.00 | 0.00 | 0.00 | 77 | 1012.9 |
| 20260506193634 | 53 | 0 | 5.2 | 11.3 | 0.00 | 0.00 | 0.00 | 76 | 1013.0 |
| 20260506193131 | 53 | 0 | 4.3 | 11.3 | 0.00 | 0.00 | 0.00 | 76 | 1012.9 |
| 20260506192632 | 53 | 0 | 7.0 | 10.4 | 0.00 | 0.00 | 0.00 | 76 | 1012.8 |
| 20260506192131 | 53 | 0 | 5.2 | 10.4 | 0.00 | 0.00 | 0.00 | 76 | 1012.8 |
| 20260506191631 | 53 | 0 | 5.2 | 11.3 | 0.00 | 0.00 | 0.00 | 75 | 1012.7 |
| 20260506191131 | 53 | 0 | 6.1 | 11.3 | 0.00 | 0.00 | 0.00 | 74 | 1012.6 |
| 20260506191123 | 54 | 0 | 3.5 | 9.6 | 0.00 | 0.00 | 0.00 | 74 | 1012.5 |
| 20260506190400 | 54 | 0 | 4.3 | 10.4 | 0.00 | 0.00 | 0.00 | 73 | 1012.5 |
| 20260506185630 | 54 | 0 | 6.1 | 13.0 | 0.00 | 0.00 | 0.00 | 73 | 1012.3 |
| 20260506185133 | 54 | 0 | 5.2 | 13.0 | 0.00 | 0.00 | 0.00 | 72 | 1012.3 |
| 20260506184632 | 54 | 0 | 4.3 | 11.3 | 0.00 | 0.00 | 0.00 | 73 | 1012.2 |
| 20260506184132 | 54 | 0 | 5.2 | 12.2 | 0.00 | 0.00 | 0.00 | 73 | 1012.2 |
| 20260506183631 | 54 | 0 | 4.3 | 12.2 | 0.00 | 0.00 | 0.00 | 72 | 1012.2 |
| 20260506183131 | 54 | 0 | 6.1 | 17.4 | 0.00 | 0.00 | 0.00 | 72 | 1012.0 |
| 20260506182631 | 55 | 0 | 6.1 | 17.4 | 0.00 | 0.00 | 0.00 | 71 | 1012.1 |
| 20260506182132 | 55 | 0 | 7.0 | 10.4 | 0.00 | 0.00 | 0.00 | 71 | 1011.9 |
| 20260506181632 | 55 | 0 | 3.5 | 12.2 | 0.00 | 0.00 | 0.00 | 72 | 1012.0 |
| 20260506181130 | 55 | 0 | 4.3 | 12.2 | 0.00 | 0.00 | 0.00 | 72 | 1011.9 |
| 20260506180857 | 55 | 0 | 6.1 | 11.3 | 0.00 | 0.00 | 0.00 | 71 | 1011.8 |
| 20260506180130 | 55 | 0 | 6.1 | 11.3 | 0.00 | 0.00 | 0.00 | 71 | 1011.8 |
| 20260506175855 | 55 | 0 | 4.3 | 12.2 | 0.00 | 0.00 | 0.00 | 71 | 1011.8 |
| 20260506175132 | 55 | 0 | 6.1 | 13.9 | 0.00 | 0.00 | 0.00 | 70 | 1011.7 |
| 20260506174632 | 56 | 0 | 6.1 | 13.9 | 0.00 | 0.00 | 0.00 | 70 | 1011.7 |
| 20260506174131 | 56 | 0 | 4.3 | 11.3 | 0.00 | 0.00 | 0.00 | 71 | 1011.5 |
| 20260506173853 | 56 | 0 | 7.0 | 12.2 | 0.00 | 0.00 | 0.00 | 71 | 1011.5 |
| 20260506173131 | 56 | 0 | 6.1 | 12.2 | 0.00 | 0.00 | 0.00 | 70 | 1011.5 |
| 20260506172631 | 56 | 0 | 6.1 | 13.0 | 0.00 | 0.00 | 0.00 | 71 | 1011.4 |
| 20260506172130 | 56 | 0 | 7.0 | 13.0 | 0.00 | 0.00 | 0.00 | 71 | 1011.4 |
| 20260506171633 | 56 | 0 | 3.5 | 13.9 | 0.00 | 0.00 | 0.00 | 72 | 1011.3 |
| 20260506171132 | 56 | 0 | 7.0 | 15.6 | 0.00 | 0.00 | 0.00 | 72 | 1011.3 |
| 20260506170632 | 56 | 0 | 7.8 | 15.6 | 0.00 | 0.00 | 0.00 | 72 | 1011.3 |
| 20260506170133 | 56 | 0 | 7.0 | 15.6 | 0.00 | 0.00 | 0.00 | 71 | 1011.3 |
| 20260506165858 | 56 | 0 | 3.5 | 15.6 | 0.00 | 0.00 | 0.00 | 71 | 1011.2 |
| 20260506165132 | 57 | 0 | 7.8 | 16.5 | 0.00 | 0.00 | 0.00 | 71 | 1011.2 |
| 20260506164631 | 57 | 0 | 6.1 | 16.5 | 0.00 | 0.00 | 0.00 | 72 | 1011.1 |
| 20260506164357 | 57 | 0 | 7.0 | 15.6 | 0.00 | 0.00 | 0.00 | 71 | 1011.2 |
| 20260506163632 | 57 | 0 | 4.3 | 15.6 | 0.00 | 0.00 | 0.00 | 71 | 1011.2 |
| 20260506163131 | 58 | 0 | 7.8 | 14.8 | 0.00 | 0.00 | 0.00 | 71 | 1010.9 |
| 20260506162631 | 58 | 0 | 7.0 | 13.9 | 0.00 | 0.00 | 0.00 | 72 | 1010.9 |
| 20260506162153 | 58 | 0 | 7.8 | 13.0 | 0.00 | 0.00 | 0.00 | 70 | 1011.0 |
| 20260506162146 | 58 | 0 | 7.8 | 13.9 | 0.00 | 0.00 | 0.00 | 70 | 1011.0 |
| 20260506161140 | 58 | 0 | 6.1 | 13.9 | 0.00 | 0.00 | 0.00 | 69 | 1011.0 |
| 20260506160638 | 58 | 0 | 9.6 | 13.9 | 0.00 | 0.00 | 0.00 | 70 | 1011.0 |
| 20260506160140 | 58 | 0 | 7.8 | 11.3 | 0.00 | 0.00 | 0.00 | 70 | 1011.0 |
| 20260506155639 | 58 | 0 | 3.5 | 10.4 | 0.00 | 0.00 | 0.00 | 72 | 1010.9 |
| 20260506155354 | 58 | 0 | 7.0 | 11.3 | 0.00 | 0.00 | 0.00 | 71 | 1011.0 |
| 20260506154627 | 58 | 0 | 6.1 | 11.3 | 0.00 | 0.00 | 0.00 | 70 | 1011.0 |
| 20260506154125 | 59 | 0 | 6.1 | 12.2 | 0.00 | 0.00 | 0.00 | 68 | 1011.1 |
| 20260506153626 | 59 | 0 | 6.1 | 12.2 | 0.00 | 0.00 | 0.00 | 69 | 1011.0 |
| 20260506153128 | 59 | 0 | 7.0 | 14.8 | 0.00 | 0.00 | 0.00 | 71 | 1010.9 |
| 20260506152625 | 59 | 0 | 6.1 | 14.8 | 0.00 | 0.00 | 0.00 | 70 | 1010.9 |
| 20260506152126 | 58 | 0 | 7.8 | 13.9 | 0.00 | 0.00 | 0.00 | 69 | 1010.8 |
| 20260506151624 | 58 | 0 | 7.0 | 13.9 | 0.00 | 0.00 | 0.00 | 70 | 1010.8 |
| 20260506151124 | 58 | 0 | 6.1 | 13.0 | 0.00 | 0.00 | 0.00 | 70 | 1010.9 |
| 20260506150624 | 58 | 0 | 7.0 | 13.0 | 0.00 | 0.00 | 0.00 | 70 | 1010.7 |
| 20260506150126 | 57 | 0 | 7.0 | 13.0 | 0.00 | 0.00 | 0.00 | 70 | 1010.7 |
| 20260506145624 | 57 | 0 | 7.0 | 13.9 | 0.00 | 0.00 | 0.00 | 70 | 1010.8 |
| 20260506145358 | 57 | 0 | 5.2 | 13.9 | 0.00 | 0.00 | 0.00 | 71 | 1010.7 |
| 20260506144625 | 56 | 0 | 6.1 | 13.9 | 0.00 | 0.00 | 0.00 | 72 | 1010.8 |
| 20260506144124 | 56 | 0 | 4.3 | 13.0 | 0.00 | 0.00 | 0.00 | 73 | 1010.8 |
| 20260506143850 | 56 | 0 | 6.1 | 14.8 | 0.00 | 0.00 | 0.00 | 72 | 1010.9 |
| 20260506143123 | 56 | 0 | 7.0 | 14.8 | 0.00 | 0.00 | 0.00 | 71 | 1010.8 |
| 20260506142625 | 56 | 0 | 5.2 | 13.0 | 0.00 | 0.00 | 0.00 | 72 | 1010.7 |
| 20260506142125 | 57 | 0 | 7.0 | 13.0 | 0.00 | 0.00 | 0.00 | 72 | 1010.8 |
| 20260506141625 | 56 | 0 | 6.1 | 13.0 | 0.00 | 0.00 | 0.00 | 72 | 1010.7 |
| 20260506141125 | 57 | 0 | 7.0 | 14.8 | 0.00 | 0.00 | 0.00 | 71 | 1010.8 |
| 20260506140624 | 57 | 0 | 6.1 | 14.8 | 0.00 | 0.00 | 0.00 | 71 | 1010.8 |
| 20260506140125 | 57 | 0 | 4.3 | 14.8 | 0.00 | 0.00 | 0.00 | 72 | 1010.8 |
| 20260506135625 | 56 | 0 | 5.2 | 14.8 | 0.00 | 0.00 | 0.00 | 72 | 1010.8 |
| 20260506135123 | 57 | 0 | 7.8 | 13.0 | 0.00 | 0.00 | 0.00 | 73 | 1010.8 |
| 20260506134624 | 57 | 0 | 4.3 | 13.0 | 0.00 | 0.00 | 0.00 | 73 | 1010.7 |
| 20260506134123 | 57 | 0 | 6.1 | 13.0 | 0.00 | 0.00 | 0.00 | 72 | 1010.7 |
| 20260506133624 | 57 | 0 | 5.2 | 13.9 | 0.00 | 0.00 | 0.00 | 72 | 1010.7 |
| 20260506133122 | 57 | 0 | 7.0 | 13.9 | 0.00 | 0.00 | 0.00 | 73 | 1010.7 |
| 20260506132624 | 57 | 0 | 7.8 | 13.9 | 0.00 | 0.00 | 0.00 | 72 | 1010.7 |
| 20260506132122 | 57 | 0 | 7.8 | 13.9 | 0.00 | 0.00 | 0.00 | 71 | 1010.6 |
| 20260506131622 | 57 | 0 | 5.2 | 13.9 | 0.00 | 0.00 | 0.00 | 71 | 1010.5 |
| 20260506131121 | 57 | 0 | 6.1 | 13.9 | 0.00 | 0.00 | 0.00 | 71 | 1010.4 |
| 20260506130847 | 58 | 0 | 7.0 | 13.0 | 0.00 | 0.00 | 0.00 | 70 | 1010.4 |
| 20260506130121 | 58 | 0 | 5.2 | 11.3 | 0.00 | 0.00 | 0.00 | 71 | 1010.5 |
| 20260506125621 | 58 | 0 | 7.0 | 11.3 | 0.00 | 0.00 | 0.00 | 69 | 1010.5 |
| 20260506125345 | 58 | 0 | 6.1 | 11.3 | 0.00 | 0.00 | 0.00 | 69 | 1010.5 |
| 20260506124622 | 58 | 0 | 5.2 | 13.9 | 0.00 | 0.00 | 0.00 | 66 | 1010.4 |
| 20260506124351 | 57 | 0 | 6.1 | 13.9 | 0.00 | 0.00 | 0.00 | 65 | 1010.5 |
| 20260506123622 | 58 | 0 | 7.0 | 14.8 | 0.00 | 0.00 | 0.00 | 66 | 1010.4 |
| 20260506123122 | 58 | 0 | 5.2 | 14.8 | 0.00 | 0.00 | 0.00 | 68 | 1010.5 |
| 20260506122621 | 58 | 0 | 6.1 | 12.2 | 0.00 | 0.00 | 0.00 | 67 | 1010.4 |
| 20260506122122 | 58 | 0 | 7.8 | 15.6 | 0.00 | 0.00 | 0.00 | 67 | 1010.4 |
| 20260506121619 | 58 | 0 | 8.7 | 15.6 | 0.00 | 0.00 | 0.00 | 66 | 1010.4 |
| 20260506121353 | 58 | 0 | 5.2 | 13.0 | 0.00 | 0.00 | 0.00 | 67 | 1010.4 |
| 20260506120620 | 58 | 0 | 7.8 | 13.0 | 0.00 | 0.00 | 0.00 | 68 | 1010.4 |
| 20260506120120 | 58 | 0 | 7.0 | 12.2 | 0.00 | 0.00 | 0.00 | 70 | 1010.3 |
| 20260506115618 | 57 | 0 | 5.2 | 9.6 | 0.00 | 0.00 | 0.00 | 69 | 1010.4 |
| 20260506115120 | 57 | 0 | 6.1 | 9.6 | 0.00 | 0.00 | 0.00 | 71 | 1010.3 |
| 20260506114618 | 57 | 0 | 4.3 | 10.4 | 0.00 | 0.00 | 0.00 | 69 | 1010.4 |
| 20260506114118 | 57 | 0 | 6.1 | 10.4 | 0.00 | 0.00 | 0.00 | 69 | 1010.3 |
| 20260506113618 | 58 | 0 | 8.7 | 9.6 | 0.00 | 0.00 | 0.00 | 69 | 1010.4 |
| 20260506113120 | 58 | 0 | 7.8 | 11.3 | 0.00 | 0.00 | 0.00 | 69 | 1010.4 |
| 20260506112619 | 58 | 0 | 7.8 | 11.3 | 0.00 | 0.00 | 0.00 | 70 | 1010.5 |
| 20260506112344 | 58 | 0 | 6.1 | 7.8 | 0.00 | 0.00 | 0.00 | 69 | 1010.4 |
| 20260506111845 | 59 | 0 | 5.2 | 7.8 | 0.00 | 0.00 | 0.00 | 69 | 1010.4 |
| 20260506111119 | 59 | 0 | 4.3 | 6.1 | 0.00 | 0.00 | 0.00 | 69 | 1010.3 |
| 20260506110617 | 59 | 0 | 9.6 | 11.3 | 0.00 | 0.00 | 0.00 | 70 | 1010.3 |
| 20260506110121 | 59 | 0 | 9.6 | 11.3 | 0.00 | 0.00 | 0.00 | 70 | 1010.3 |
| 20260506105619 | 59 | 0 | 7.8 | 7.8 | 0.00 | 0.00 | 0.00 | 69 | 1010.3 |
| 20260506105117 | 59 | 0 | 4.3 | 14.8 | 0.00 | 0.00 | 0.00 | 70 | 1010.4 |
| 20260506104617 | 59 | 0 | 7.8 | 14.8 | 0.00 | 0.00 | 0.00 | 69 | 1010.4 |
| 20260506104119 | 59 | 0 | 7.8 | 12.2 | 0.00 | 0.00 | 0.00 | 71 | 1010.3 |
| 20260506103617 | 58 | 0 | 8.7 | 12.2 | 0.00 | 0.00 | 0.00 | 72 | 1010.3 |
| 20260506103117 | 58 | 0 | 10.4 | 10.4 | 0.00 | 0.00 | 0.00 | 70 | 1010.4 |
| 20260506102617 | 58 | 0 | 7.8 | 13.0 | 0.00 | 0.00 | 0.00 | 72 | 1010.4 |
| 20260506102118 | 58 | 0 | 7.0 | 13.0 | 0.00 | 0.00 | 0.00 | 70 | 1010.3 |
| 20260506101836 | 58 | 0 | 7.8 | 11.3 | 0.00 | 0.00 | 0.00 | 71 | 1010.4 |
| 20260506101118 | 58 | 0 | 7.0 | 12.2 | 0.00 | 0.00 | 0.00 | 75 | 1010.3 |
| 20260506100619 | 57 | 0 | 9.6 | 12.2 | 0.00 | 0.00 | 0.00 | 74 | 1010.3 |
| 20260506100117 | 57 | 0 | 6.1 | 12.2 | 0.00 | 0.00 | 0.00 | 73 | 1010.3 |
| 20260506095618 | 57 | 0 | 7.8 | 11.3 | 0.00 | 0.00 | 0.00 | 74 | 1010.3 |
| 20260506095116 | 57 | 0 | 7.8 | 11.3 | 0.00 | 0.00 | 0.00 | 75 | 1010.2 |
| 20260506094842 | 57 | 0 | 5.2 | 13.9 | 0.00 | 0.00 | 0.00 | 74 | 1010.2 |
| 20260506094116 | 57 | 0 | 8.7 | 14.8 | 0.00 | 0.00 | 0.00 | 75 | 1010.3 |
| 20260506093616 | 57 | 0 | 7.0 | 14.8 | 0.00 | 0.00 | 0.00 | 74 | 1010.2 |
| 20260506093115 | 57 | 0 | 4.3 | 14.8 | 0.00 | 0.00 | 0.00 | 73 | 1010.3 |
| 20260506092615 | 57 | 0 | 7.8 | 13.0 | 0.00 | 0.00 | 0.00 | 73 | 1010.1 |
| 20260506092115 | 57 | 0 | 6.1 | 11.3 | 0.00 | 0.00 | 0.00 | 76 | 1010.1 |
| 20260506091616 | 57 | 0 | 7.8 | 11.3 | 0.00 | 0.00 | 0.00 | 75 | 1010.0 |
| 20260506091115 | 58 | 0 | 3.5 | 11.3 | 0.00 | 0.00 | 0.00 | 75 | 1010.0 |
| 20260506090616 | 58 | 0 | 7.0 | 12.2 | 0.00 | 0.00 | 0.00 | 75 | 1010.0 |
| 20260506090344 | 58 | 0 | 5.2 | 12.2 | 0.00 | 0.00 | 0.00 | 76 | 1009.9 |